Window Rock, AZ

3:26 AM MST on February 25, 2017 (GMT -0700)
Window Rock

Weather History for KRQE - June, 2013

Change the Weather History Date:

Wednesday, June 26, 2013

  Actual Average Record
Temperature  
Mean Temperature 66 °F -  
Max Temperature 90 °F 84 °F 95 °F (1970)
Min Temperature 42 °F 50 °F 32 °F (1975)
Cooling Degree Days 1    
Growing Degree Days 16 (Base 50)    
Moisture  
Dew Point 23 °F    
Average Humidity 18    
Maximum Humidity 43    
Minimum Humidity 9    
Precipitation  
Precipitation 0.00 in - - ()
Sea Level Pressure  
Sea Level Pressure 29.92 in    
Wind  
Wind Speed 3 mph (WSW)    
Max Wind Speed 12 mph    
Max Gust Speed 22 mph    
Visibility 10 miles    
Events      
Averages and records for this station are not official NWS values.
T = Trace of Precipitation, MM = Missing Value Source: NWS Daily Summary

Daily Weather History Graph

Daily Weather History Graph

Search for Another Location

Airport or City:

Trip Planner

Search our weather history database for the weather conditions in past years. The results will help you decide how hot, cold, wet, or windy it might be!

Date:

Astronomy

Jun. 26, 2013 Rise Set
Actual Time 6:02 AM MDT 8:36 PM MDT
Civil Twilight 5:32 AM MDT 9:06 PM MDT
Nautical Twilight 4:55 AM MDT 9:43 PM MDT
Astronomical Twilight 4:13 AM MDT 10:24 PM MDT
Moon 11:10 PM MDT (6/26) 9:49 AM MDT (6/26)
Length of Visible Light 15h 33m
Length of Day
14h 33m
Waning Gibbous, 85% of the Moon is Illuminated
Jun 26
Waning Gibbous
Jun 29
Last Quarter
Jul 8
New
Jul 15
First Quarter
Jul 22
Full

Hourly Weather History & Observations

Time (MDT) Temp. Windchill Dew Point Humidity Pressure Visibility Wind Dir Wind Speed Gust Speed Precip Events Conditions
12:53 AM 60.1 °F - 21.9 °F 23% 29.87 in 10.0 mi Calm Calm - N/A   Clear
1:53 AM 55.9 °F - 21.9 °F 27% 29.88 in 10.0 mi Calm Calm - N/A   Clear
2:53 AM 51.1 °F - 21.0 °F 31% 29.91 in 10.0 mi Calm Calm - N/A   Clear
3:53 AM 48.9 °F - 21.0 °F 33% 29.92 in 10.0 mi Calm Calm - N/A   Clear
4:53 AM 46.0 °F 44.8 °F 19.9 °F 35% 29.95 in 10.0 mi NNE 3.5 mph - N/A   Clear
5:53 AM 42.1 °F - 21.0 °F 43% 29.98 in 10.0 mi Calm Calm - N/A   Clear
7:53 AM 57.9 °F - 21.9 °F 25% 29.96 in 10.0 mi Calm Calm - N/A   Clear
8:53 AM 68.0 °F - 24.1 °F 19% 29.97 in 10.0 mi Calm Calm - N/A   Clear
9:53 AM 75.0 °F - 25.0 °F 16% 29.96 in 10.0 mi South 5.8 mph - N/A   Clear
10:53 AM 80.1 °F - 27.0 °F 14% 29.96 in 10.0 mi South 6.9 mph - N/A   Clear
11:53 AM 82.9 °F - 26.1 °F 13% 29.95 in 10.0 mi WSW 8.1 mph 19.6 mph N/A   Clear
12:53 PM 84.9 °F - 26.1 °F 12% 29.92 in 10.0 mi WSW 5.8 mph - N/A   Clear
1:53 PM 87.1 °F - 26.1 °F 11% 29.92 in 10.0 mi SW 6.9 mph - N/A   Clear
2:53 PM 88.0 °F - 25.0 °F 10% 29.91 in 10.0 mi WSW 10.4 mph 21.9 mph N/A   Clear
3:53 PM 90.0 °F - 23.0 °F 9% 29.90 in 10.0 mi West 9.2 mph - N/A   Clear
4:53 PM 90.0 °F - 24.1 °F 9% 29.91 in 10.0 mi WSW 10.4 mph - N/A   Clear
5:53 PM 90.0 °F - 24.1 °F 9% 29.91 in 10.0 mi WSW 11.5 mph - N/A   Clear
6:53 PM 89.1 °F - 23.0 °F 9% 29.89 in 10.0 mi West 11.5 mph - N/A   Clear
7:53 PM 86.0 °F - 21.9 °F 10% 29.86 in 10.0 mi West 11.5 mph - N/A   Clear
8:53 PM 77.0 °F - 24.1 °F 14% 29.86 in 10.0 mi Calm Calm - N/A   Clear
9:53 PM 72.0 °F - 24.1 °F 17% 29.88 in 10.0 mi Calm Calm - N/A   Clear
10:53 PM 69.1 °F - 23.0 °F 18% 29.90 in 10.0 mi SSW 3.5 mph - N/A   Clear
11:53 PM 68.0 °F - 23.0 °F 18% 29.89 in 10.0 mi ENE 4.6 mph - N/A   Clear